Elko, NV

11:39 AM PDT on September 27, 2016 (GMT -0700)
Elko Regional

Weather History for KEKO - November, 2012

Change the Weather History Date:

Friday, November 16, 2012

  Actual Average Record
Temperature  
Mean Temperature 47 °F 34 °F  
Max Temperature 56 °F 48 °F 74 °F (1894)
Min Temperature 37 °F 21 °F -10 °F (1909)
Degree Days  
Heating Degree Days 18 31  
Month to date heating degree days 418 439  
Since 1 July heating degree days 985 1268  
Cooling Degree Days 0 0  
Month to date cooling degree days 0 0  
Year to date cooling degree days 682 383  
Moisture  
Dew Point 32 °F    
Average Humidity 65    
Maximum Humidity 89    
Minimum Humidity 41    
Precipitation  
Precipitation 0.13 in 0.04 in 1.33 in (1930)
Month to date precipitation 0.23 0.58  
Year to date precipitation 5.47 8.18  
Snow  
Snow 0.00 in 0.10 in 10.00 in (1930)
Month to date snowfall 1.5 1.7  
Since 1 July snowfall 1.8 2.4  
Since 1 September snowfall 1.8 2.4  
Snow Depth 0.00 in    
Sea Level Pressure  
Sea Level Pressure 30.02 in    
Wind  
Wind Speed 6 mph (SSW)    
Max Wind Speed 17 mph    
Max Gust Speed 25 mph    
Visibility 10 miles    
Events Rain    
T = Trace of Precipitation, MM = Missing Value Source: NWS Daily Summary

Daily Weather History Graph

Daily Weather History Graph

Search for Another Location

Airport or City:

Trip Planner

Search our weather history database for the weather conditions in past years. The results will help you decide how hot, cold, wet, or windy it might be!

Date:

Astronomy

Nov. 16, 2012 Rise Set
Actual Time 6:32 AM PST 4:23 PM PST
Civil Twilight 6:02 AM PST 4:53 PM PST
Nautical Twilight 5:29 AM PST 5:26 PM PST
Astronomical Twilight 4:56 AM PST 5:58 PM PST
Moon 9:30 AM PST (11/16) 7:28 PM PST (11/16)
Length of Visible Light 10h 50m
Length of Day
9h 51m
Waxing Crescent, 12% of the Moon is Illuminated
Nov 16
Waxing Crescent
Nov 20
First Quarter
Nov 28
Full
Dec 6
Last Quarter
Dec 13
New

Hourly Weather History & Observations

Time (PST) Temp. Windchill Dew Point Humidity Pressure Visibility Wind Dir Wind Speed Gust Speed Precip Events Conditions
12:56 AM 39.0 °F 34.0 °F 24.1 °F 55% 30.05 in 10.0 mi ESE 6.9 mph - N/A   Partly Cloudy
1:56 AM 37.9 °F 34.4 °F 24.1 °F 57% 30.03 in 10.0 mi North 4.6 mph - N/A   Overcast
2:56 AM 37.0 °F 32.4 °F 25.0 °F 62% 30.04 in 10.0 mi NNW 5.8 mph - N/A   Overcast
3:56 AM 37.9 °F 33.5 °F 25.0 °F 60% 30.02 in 10.0 mi ENE 5.8 mph - N/A   Overcast
4:56 AM 37.9 °F 34.4 °F 25.0 °F 60% 30.03 in 10.0 mi NE 4.6 mph - N/A   Overcast
5:56 AM 37.9 °F 34.4 °F 25.0 °F 60% 30.05 in 10.0 mi ENE 4.6 mph - N/A   Overcast
6:56 AM 41.0 °F 39.0 °F 26.1 °F 55% 30.05 in 10.0 mi NNW 3.5 mph - N/A   Overcast
7:56 AM 44.1 °F 40.8 °F 28.9 °F 55% 30.06 in 10.0 mi WNW 5.8 mph - N/A   Overcast
8:56 AM 50.0 °F - 30.9 °F 48% 30.05 in 10.0 mi SSW 10.4 mph - N/A   Scattered Clouds
9:56 AM 50.0 °F - 30.9 °F 48% 30.04 in 10.0 mi West 4.6 mph - N/A   Clear
10:56 AM 52.0 °F - 30.0 °F 43% 30.02 in 10.0 mi WSW 8.1 mph - N/A   Scattered Clouds
11:56 AM 53.1 °F - 30.0 °F 41% 29.99 in 10.0 mi South 9.2 mph - N/A   Mostly Cloudy
12:56 PM 54.0 °F - 30.9 °F 41% 29.98 in 10.0 mi South 9.2 mph - N/A   Mostly Cloudy
1:56 PM 53.1 °F - 32.0 °F 45% 29.96 in 10.0 mi South 10.4 mph - N/A   Overcast
2:56 PM 53.1 °F - 30.9 °F 43% 29.97 in 10.0 mi SSE 10.4 mph - N/A   Overcast
3:56 PM 50.0 °F - 34.0 °F 54% 29.99 in 10.0 mi South 8.1 mph - N/A   Overcast
4:56 PM 46.9 °F - 37.0 °F 68% 30.00 in 10.0 mi NW 3.5 mph - 0.01 in Rain Light Rain
5:56 PM 46.0 °F 43.9 °F 37.9 °F 73% 30.02 in 10.0 mi WNW 4.6 mph - 0.00 in Rain Light Rain
6:56 PM 43.0 °F 41.3 °F 39.9 °F 89% 30.04 in 5.0 mi Variable 3.5 mph - 0.06 in Rain Rain
7:56 PM 43.0 °F - 39.9 °F 89% 30.03 in 9.0 mi Calm Calm - 0.04 in Rain Light Rain
8:56 PM 43.0 °F - 39.9 °F 89% 30.02 in 9.0 mi Calm Calm - 0.02 in Rain Light Rain
9:56 PM 42.1 °F 38.4 °F 39.9 °F 92% 30.02 in 10.0 mi East 5.8 mph - 0.00 in   Overcast
10:56 PM 42.1 °F 40.2 °F 39.9 °F 92% 30.01 in 10.0 mi ENE 3.5 mph - N/A   Overcast
11:56 PM 42.1 °F - 39.9 °F 92% 30.00 in 10.0 mi Calm Calm - N/A   Overcast